Regional Weather Roundup
Issued by NWS Sterling, VA

Home | Current Version | Previous Version | Graphics & Text | Print | Product List | Glossary On
Versions: 1 2 3 4 5 6 7 8 9 10 11 12 13 14 15 16 17 18 19 20 21 22 23 24 25 26 27 28
000
ASUS41 KLWX 291610
RWRLWX

REGIONAL WEATHER ROUNDUP
NATIONAL WEATHER SERVICE BALTIMORE MD/WASHINGTON DC
1200 PM EDT FRI APR 29 2016

Note: "FAIR" indicates few or no clouds below 12,000 feet
with no significant weather and/or obstructions to visibility.
 TC=TEMPERATURE CELSIUS

 * =Non NWS site. Station does not report precipitation (e.g. rain,
    snow, etc.), thunder, or fog.

DCZ001-MDZ009-015-VAZ040>042-051-053>054-291700-
WASHINGTON METRO

CITY           SKY/WX    TMP DP  RH WIND       PRES   REMARKS
WASHINGTON NAT CLOUDY    51  48  89 NE8       30.07F
DULLES         CLOUDY    49  46  90 E6        30.06F FOG
ANDREWS AFB    CLOUDY    50  48  95 E6        30.05F
FT BELVOIR     CLOUDY    51  47  86 VRB1      30.07S
QUANTICO       CLOUDY    52  49  89 E7        30.07F
COLLEGE PARK*  CLOUDY    48  46  93 CALM      30.07S
LEESBURG*      CLOUDY    50  50 100 E6        30.06F FOG
MANASSAS*      CLOUDY    52  50  93 CALM      30.07S FOG
GAITHERSBURG*  CLOUDY    48  45  87 CALM      30.10S

$$

MDZ006>007-011-014-291700-
BALTIMORE METRO

CITY           SKY/WX    TMP DP  RH WIND       PRES   REMARKS
BWI AIRPORT    CLOUDY    49  47  93 E8        30.07S
MD SCIENCE CTR   N/A     49  46  90 MISG      30.08S
MARTIN STATE   DRIZZLE   48  48 100 CALM      30.11S
ANNAPOLIS      CLOUDY    50  48  93 MISG      30.06F FOG
FORT MEADE*    CLOUDY    50  46  87 NE5       30.09F

$$

MDZ012-015-019>023-291700-
MARYLAND EASTERN SHORE

CITY           SKY/WX    TMP DP  RH WIND       PRES   REMARKS
OCEAN CITY     CLOUDY    53  48  83 NE13G20   30.05R
SALISBURY      CLOUDY    52  49  89 NE9       30.05S
CAMBRIDGE*     CLOUDY    52  50  93 NE7       30.05F
EASTON*        CLOUDY   N/A N/A N/A E6        30.10  FOG

$$

MDZ017>025-291700-
SOUTHERN MARYLAND

CITY           SKY/WX    TMP DP  RH WIND       PRES   REMARKS
PATUXENT RIVER DRIZZLE   53  50  89 NE7       30.04F FOG
ST INIGOES     CLOUDY    54  52  93 NE8       30.04F
LEONARDTOWN*   CLOUDY    52  48  87 CALM      30.06F

$$

MDZ003>005-291700-
NORTH CENTRAL MARYLAND

CITY           SKY/WX    TMP DP  RH WIND       PRES   REMARKS
FREDERICK*     CLOUDY    48  48 100 VRB5      30.09F FOG
HAGERSTOWN APT CLOUDY    49  44  83 E5        30.04F
WESTMINSTER*   CLOUDY    48  46  93 SE5       30.06F

$$

MDZ501>502-291700-
WESTERN MARYLAND

CITY           SKY/WX    TMP DP  RH WIND       PRES   REMARKS
OAKLAND*       CLOUDY    52  50  93 W7        29.99S
CUMBERLAND*    CLOUDY    52  48  87 CALM      30.06S

$$

VAZ025>031-291700-
SHENANDOAH VALLEY

CITY           SKY/WX    TMP DP  RH WIND       PRES   REMARKS
WINCHESTER*    CLOUDY    50  46  87 CALM      30.03F FOG
FRONT ROYAL*   CLOUDY    50  48  93 NE3       30.02F
LURAY*         CLOUDY    52  52 100 N5        30.01F
NEW MARKET*    CLOUDY    53  51  91 N6        30.00F
STAUNTON*      CLOUDY   N/A N/A N/A CALM      30.01F HAZE
WAYNESBORO*    CLOUDY    60  57  89 MISG      29.99F

$$

WVZ021-048>050-054>055-291700-
EASTERN WEST VIRGINIA PANHANDLE

CITY           SKY/WX    TMP DP  RH WIND       PRES   REMARKS
MARTINSBURG    CLOUDY    48  46  93 VRB3      30.04F FOG
PETERSBURG*    CLOUDY    54  51  90 NW3       30.01F

$$

VAZ036>039-050-291700-
CENTRAL FOOTHILLS

CITY           SKY/WX    TMP DP  RH WIND       PRES   REMARKS
CHARLOTTESVILL CLOUDY    53  49  86 NE8       30.03F
CULPEPER*      CLOUDY    52  49  91 CALM      30.06S FOG
ORANGE*        CLOUDY    52  52 100 CALM      30.06S FOG
GORDONSVILLE*  CLOUDY    51  51  98 NE5       30.04F FOG
WARRENTON*     CLOUDY    52  46  81 NE3       30.05S HAZE

$$

VAZ055>057-291700-
NORTH AND CENTRAL PIEDMONT

CITY           SKY/WX    TMP DP  RH WIND       PRES   REMARKS
FREDERICKSBRG* CLOUDY    52  52 100 N3        30.06R
STAFFORD*      CLOUDY    51  48  90 E3        30.10S

$$

NCZ024-NYZ072-PAZ021-071-VAZ022-071-291700-
OTHER REGIONAL OBSERVATIONS

CITY           SKY/WX    TMP DP  RH WIND       PRES   REMARKS
NEW YORK CITY  CLOUDY    55  24  30 E10G17    30.15R
PHILADELPHIA   LGT RAIN  52  40  63 E10       30.09S
PITTSBURGH     CLOUDY    51  47  86 W7        29.99R FOG
ROANOKE        FAIR      72  55  55 VRB5      30.00S
RICHMOND       CLOUDY    53  50  89 CALM      30.04S
RALEIGH        PTSUNNY   70  61  73 VRB5      29.99F

$$

ANZ530>537-291700-
MARINE OBSERVATIONS

STATION/POSITION TIME  TEMP    WIND        PRES
                       AIR SEA DIR/SP/G
                 (UTC) (F)     (DEG/KT/KT) (MB)
THOMAS PT LIGHT  1600   49 57   40/  9/ 10 1019.5F
BALT KEY BRIDGE  1500   48      60/  8/  9 1018.4R
COVE POINT       1500   50      60/  6/  9 1018.6R
LEWISETTA        1500   52 60   50/  5/  8 1017.4R
SOLOMONS ISLAND  1500   51 59   40/  5/  6   N/A
PINEY POINT      1500           70/  4/  5   N/A

$$





USA.gov is the U.S. government's official web portal to all federal, state and local government web resources and services.